San Jose, Costa Rica

5:29 AM CST on December 13, 2017 (GMT -0600)
Juan Santamaria International

Weather History for MROC - October, 2013

Change the Weather History Date:

Thursday, October 3, 2013

  Actual Average Record
Temperature  
Mean Temperature 72 °F -  
Max Temperature 81 °F 78 °F 86 °F (2001)
Min Temperature 63 °F 64 °F 62 °F (1996)
Cooling Degree Days 7    
Growing Degree Days 22 (Base 50)    
Moisture  
Dew Point 66 °F    
Average Humidity 89    
Maximum Humidity 100    
Minimum Humidity 56    
Precipitation  
Precipitation 0.20 in 0.41 in - ()
Sea Level Pressure  
Sea Level Pressure 29.95 in    
Wind  
Wind Speed 5 mph ()    
Max Wind Speed 12 mph    
Max Gust Speed -    
Visibility 6.7 miles    
Events Fog , Rain    
Averages and records for this station are not official NWS values.
T = Trace of Precipitation, MM = Missing Value Source: Averaged Metar Reports

Daily Weather History Graph

Daily Weather History Graph

Search for Another Location

Airport or City:

Trip Planner

Search our weather history database for the weather conditions in past years. The results will help you decide how hot, cold, wet, or windy it might be!

Date:

Astronomy

Oct. 03, 2013 Rise Set
Actual Time 5:25 AM CST 5:26 PM CST
Civil Twilight 5:04 AM CST 5:47 PM CST
Nautical Twilight 4:39 AM CST 6:11 PM CST
Astronomical Twilight 4:15 AM CST 6:35 PM CST
Moon 4:08 AM CST (10/3) 4:29 PM CST (10/3)
Length of Visible Light 12h 42m
Length of Day
12h 00m
Waning Crescent, 2% of the Moon is Illuminated
Oct 3
Waning Crescent
Oct 4
New
Oct 11
First Quarter
Oct 18
Full
Oct 26
Last Quarter

Hourly Weather History & Observations

Time (CST) Temp. Heat Index Dew Point Humidity Pressure Visibility Wind Dir Wind Speed Gust Speed Precip Events Conditions
12:00 AM 66 °F - 65 °F 98% 29.86 in 12 mi ENE 3.5 mph - -   Scattered Clouds
12:00 AM 66.2 °F - 66.2 °F 100% 30.01 in 6.2 mi ENE 3.5 mph - N/A   Mostly Cloudy
1:00 AM 66.2 °F - 64.4 °F 94% 29.98 in 6.2 mi NNE 2.3 mph - N/A   Scattered Clouds
2:00 AM 64.4 °F - 64.4 °F 100% 29.94 in 6.2 mi East 4.6 mph - N/A   Scattered Clouds
3:00 AM 65 °F - 64 °F 97% 29.82 in 12 mi NE 3.5 mph - -   Clear
3:00 AM 64.4 °F - 64.4 °F 100% 29.93 in - NE 3.5 mph - N/A   Clear
4:00 AM 64.4 °F - 62.6 °F 94% 29.93 in - ENE 5.8 mph - N/A   Clear
5:00 AM 64.4 °F - 62.6 °F 94% 29.95 in - East 5.8 mph - N/A   Clear
6:00 AM 65 °F - 62 °F 88% 29.80 in 12 mi ENE 4.6 mph - -   Scattered Clouds
6:00 AM 64.4 °F - 62.6 °F 94% 29.97 in 6.2 mi ENE 4.6 mph - N/A   Mostly Cloudy
7:00 AM 68.0 °F - 62.6 °F 83% 29.99 in - ENE 5.8 mph - N/A   Clear
8:00 AM 73.4 °F - 66.2 °F 78% 30.01 in - East 5.8 mph - N/A   Clear
9:00 AM 78 °F - 65 °F 56% 29.83 in 12 mi East 9.2 mph - -   Clear
9:00 AM 78.8 °F - 64.4 °F 61% 30.02 in - East 9.2 mph - N/A   Clear
10:00 AM 77.0 °F - 64.4 °F 65% 30.01 in - East 5.8 mph - N/A   Clear
11:00 AM 80.6 °F 83.9 °F 69.8 °F 70% 29.99 in 6.2 mi WSW 6.9 mph - N/A   Mostly Cloudy
12:00 PM 73.4 °F - 68.0 °F 83% 29.99 in 6.2 mi WSW 11.5 mph - N/A   Mostly Cloudy
1:00 PM 71.6 °F - 68.0 °F 88% 29.98 in 6.2 mi WSW 8.1 mph - N/A Rain Light Rain
2:00 PM 73.4 °F - 68.0 °F 83% 29.95 in 6.2 mi West 4.6 mph - N/A   Mostly Cloudy
3:00 PM 74 °F - 68 °F 76% 29.80 in 9 mi SW 11.5 mph - -   Overcast
3:00 PM 73.4 °F - 68.0 °F 83% 29.93 in 6.2 mi SW 11.5 mph - N/A   Mostly Cloudy
4:00 PM 71.6 °F - 68.0 °F 88% 29.94 in 6.2 mi WSW 6.9 mph - N/A Fog Mostly Cloudy
5:00 PM 71.6 °F - 69.8 °F 94% 29.95 in 3.1 mi West 8.1 mph - N/A   Mostly Cloudy
6:00 PM 70 °F - 69 °F 97% 29.83 in 3 mi WSW 5.8 mph - -   Mist
6:00 PM 69.8 °F - 69.8 °F 100% 29.97 in 3.1 mi WSW 5.8 mph - N/A   Mostly Cloudy
7:00 PM 69.8 °F - 68.0 °F 94% 30.01 in 5.0 mi WSW 9.2 mph - N/A Fog Fog
8:00 PM 68.0 °F - 68.0 °F 100% 30.04 in 5.0 mi WSW 9.2 mph - N/A Fog Light Drizzle
9:00 PM 68.0 °F - 68.0 °F 100% 30.07 in 5.0 mi West 4.6 mph - N/A Fog Fog
10:00 PM 68.0 °F - 68.0 °F 100% 30.08 in 5.0 mi WNW 3.5 mph - N/A Rain Rain
11:00 PM 68.0 °F - 68.0 °F 100% 30.05 in 6.2 mi ENE 2.3 mph - N/A   Mostly Cloudy